Pasco, WA
on Saturday, December 22, 2012

Saturday
Previous Day Next Day
Daily Summary
 ActualAverageRecord
Temperature
Mean Temperature °F 32°F  
Max Temperature 43°F 39°F 50°F (1992)
Min Temperature 30°F 25°F -2°F (2008)
Degree Days
Heating Degree Days 28 33  
Month to date heating degree days 519 693  
Since 1 July heating degree days 1616 1922  
Cooling Degree Days 0 0  
Month to date cooling degree days 0 0  
Year to date cooling degree days 788 710  
Moisture
Dew Point 33°F   
Average Humidity 95    
Maximum Humidity 100    
Minimum Humidity 89    
Precipitation
Precipitation 0.06 in in 0.15 in (2010)
Month to date precipitation 0.62  
Year to date precipitation 9.18  
Snow
Snow 0.00 in in in ()
Snow Depth 0.00 in   
Wind
Wind Speed 2 mph   
Max Wind Speed 9 mph   
Max Gust Speed 12 mph   
Visibility 5 miles   
Events Fog , Rain   

Key: T is trace of precipitation, MM is missing value
Source: NWS Daily Summary
Time(PST)TemperatureDew PointHumidity Pressure Visibility Wind DirectionWind SpeedGust SpeedPrecipitationEvents Conditions
12:27 AM 30.2°F 30.2°F 100% 29.76 in 1.5 miles Calm Calm - N/A   Partly Cloudy
12:32 AM 32.0°F 30.2°F 93% 29.76 in 0.8 miles Calm Calm - N/A   Mist
12:38 AM 32.0°F 30.2°F 93% 29.76 in 1.2 miles Calm Calm - N/A   Partly Cloudy
12:47 AM 30.2°F 30.2°F 100% 29.74 in 3.0 miles North 3.5 mph - N/A   Scattered Clouds
12:48 AM 30.2°F 30.2°F 100% 29.74 in 4.0 miles North 3.5 mph - N/A   Mostly Cloudy
12:53 AM 30.9°F 30.9°F 100% 29.75 in 4.0 miles North 3.5 mph - N/A   Mostly Cloudy
1:00 AM 30.2°F 30.2°F 100% 29.74 in 1.8 miles North 3.5 mph - N/A   Mostly Cloudy
1:09 AM 30.2°F 30.2°F 100% 29.74 in 0.2 miles Calm Calm - N/A Fog Light Freezing Fog
1:19 AM 30.2°F 30.2°F 100% 29.74 in 1.0 miles Calm Calm - N/A   Mist
1:33 AM 30.2°F 30.2°F 100% 29.75 in 0.2 miles West 5.8 mph - N/A Fog Light Freezing Fog
1:53 AM 32.0°F 32.0°F 100% 29.77 in 0.2 miles NW 3.5 mph - N/A Fog Fog
2:21 AM 32.0°F 32.0°F 100% 29.74 in 0.5 miles North 4.6 mph - N/A Fog Fog
2:53 AM 33.1°F 32.0°F 96% 29.74 in 0.5 miles Calm Calm - N/A Fog Fog
3:22 AM 33.8°F 33.8°F 100% 29.72 in 0.2 miles Calm Calm - N/A Fog Fog
3:53 AM 33.1°F 33.1°F 100% 29.73 in 0.5 miles WNW 4.6 mph - N/A Fog Fog
3:58 AM 33.8°F 33.8°F 100% 29.72 in 2.0 miles NNW 3.5 mph - N/A   Overcast
4:06 AM 33.8°F 33.8°F 100% 29.72 in 6.0 miles Calm Calm - N/A   Overcast
4:53 AM 33.1°F 32.0°F 96% 29.70 in 3.0 miles NNW 5.8 mph - 0.00 in Rain Light Rain
4:55 AM 33.8°F 32.0°F 93% 29.69 in 2.0 miles NW 6.9 mph - N/A   Mostly Cloudy
5:01 AM 33.8°F 32.0°F 93% 29.69 in 1.5 miles NW 4.6 mph - N/A   Overcast
5:05 AM 33.8°F 32.0°F 93% 29.69 in 2.0 miles Calm Calm - N/A   Mostly Cloudy
5:10 AM 33.8°F 33.8°F 100% 29.69 in 4.0 miles WSW 3.5 mph - N/A   Overcast
5:23 AM 33.8°F 33.8°F 100% 29.68 in 5.0 miles West 3.5 mph - N/A   Overcast
5:53 AM 33.1°F 33.1°F 100% 29.68 in 10.0 miles WNW 4.6 mph - N/A   Overcast
6:53 AM 34.0°F 34.0°F 100% 29.65 in 8.0 miles Calm Calm - 0.00 in   Overcast
7:20 AM 33.8°F 33.8°F 100% 29.62 in 8.0 miles Calm Calm - 0.00 in   Overcast
7:53 AM 35.1°F 34.0°F 96% 29.62 in 9.0 miles WSW 3.5 mph - 0.00 in   Overcast
8:53 AM 36.0°F 35.1°F 97% 29.61 in 10.0 miles WNW 4.6 mph - N/A   Overcast
9:53 AM 37.9°F 36.0°F 93% 29.65 in 7.0 miles Calm Calm - 0.01 in Rain Light Rain
10:03 AM 37.4°F 37.4°F 100% 29.63 in 2.5 miles Calm Calm - 0.02 in Rain Rain
10:23 AM 37.4°F 37.4°F 100% 29.62 in 6.0 miles NW 4.6 mph - 0.04 in Rain Light Rain
10:53 AM 39.0°F 37.0°F 93% 29.63 in 6.0 miles Calm Calm - 0.04 in   Overcast
11:17 AM 39.2°F 37.4°F 93% 29.62 in 10.0 miles West 4.6 mph - N/A   Mostly Cloudy
11:53 AM 39.0°F 37.9°F 96% 29.65 in 9.0 miles West 9.2 mph - 0.00 in   Overcast
12:53 PM 39.9°F 37.9°F 93% 29.62 in 10.0 miles NNE 4.6 mph - 0.01 in   Overcast
1:53 PM 39.9°F 37.9°F 93% 29.65 in 10.0 miles SE 4.6 mph - N/A   Overcast
2:53 PM 39.9°F 37.9°F 93% 29.66 in 9.0 miles Calm Calm - N/A   Clear
3:53 PM 42.1°F 39.0°F 89% 29.69 in 10.0 miles SSE 5.8 mph - N/A   Clear
4:53 PM 39.0°F 37.0°F 93% 29.70 in 10.0 miles ESE 3.5 mph - N/A   Clear
5:53 PM 36.0°F 35.1°F 97% 29.73 in 10.0 miles Calm Calm - N/A   Clear
6:53 PM 35.1°F 34.0°F 96% 29.75 in 10.0 miles SE 3.5 mph - N/A   Clear
7:53 PM 33.1°F 30.9°F 92% 29.77 in 10.0 miles SE 3.5 mph - N/A   Scattered Clouds
8:53 PM 30.9°F 30.0°F 96% 29.79 in 10.0 miles NNE 3.5 mph - N/A   Clear
9:53 PM 32.0°F 30.0°F 92% 29.81 in 10.0 miles ENE 3.5 mph - N/A   Clear
10:53 PM 33.1°F 30.9°F 92% 29.82 in 10.0 miles SE 6.9 mph - N/A   Mostly Cloudy
11:53 PM 32.0°F 30.0°F 92% 29.84 in 10.0 miles North 5.8 mph - N/A   Partly Cloudy
Moon Phase
Dec. 22 Dec. 28 Jan. 04 Jan. 11 Jan. 18
Sunrise:07:37 AM (PST) Moon Rise:12:43 PM (PST)12/22
Sunset:04:13 PM (PST) Moon Set:02:16 AM (PST)12/22

Copyright © 2014 The Weather Underground, Inc.